Location: �terpigny
(49.8910°N, 2.9249°E)
Time: 19:26:19
(UTC+00:00)

SL-16 R/B - Pass Details

Date: 24 October 2021
Orbit: 842 x 846 km, 71.0° (Epoch: 07 December)

Event Time Altitude Azimuth Distance (km) Brightness Sun altitude
Rises 17:51:47 0° 196° (SSW) 3,388 5.6 -12.3°
Reaches altitude 10° 17:54:14 10° 193° (SSW) 2,458 4.8 -12.6°
Maximum altitude 17:59:48 64° 113° (ESE) 936 2.2 -13.5°
Drops below altitude 10° 18:05:24 10° 34° (NE) 2,476 4.3 -14.4°
Enters shadow 18:07:38 - 32° (NNE) 3,319 5.0 -14.8°
